Time,TemperatureF,DewpointF,PressureIn,WindDirection,WindDirectionDegrees,WindSpeedMPH,WindSpeedGustMPH,Humidity,HourlyPrecipIn,Conditions,Clouds,dailyrainin,SoftwareType,DateUTC
2013-03-02 00:02:00,63.0,57.0,29.96,NNE,17,15.0,20.0,80,0.00,,,0.01,,2013-03-02 05:02:00,
2013-03-02 00:12:00,63.0,57.0,29.96,NNE,17,15.0,20.0,80,0.00,,,0.01,,2013-03-02 05:12:00,
2013-03-02 00:22:00,63.0,55.0,29.96,NNE,15,14.0,21.0,74,0.00,,,0.01,,2013-03-02 05:22:00,
2013-03-02 00:32:00,63.0,56.0,29.96,North,2,13.0,21.0,78,0.00,,,0.01,,2013-03-02 05:32:00,
2013-03-02 00:42:00,63.0,56.0,29.96,North,2,13.0,21.0,78,0.00,,,0.01,,2013-03-02 05:42:00,
2013-03-02 00:52:00,62.0,56.0,29.96,NNE,33,14.0,20.0,81,0.00,,,0.01,,2013-03-02 05:52:00,
2013-03-02 01:01:00,62.0,56.0,29.96,NNE,29,12.0,19.0,82,0.00,,,0.01,,2013-03-02 06:01:00,
2013-03-02 01:11:00,62.0,56.0,29.96,NNE,29,12.0,19.0,82,0.00,,,0.01,,2013-03-02 06:11:00,
2013-03-02 01:21:00,62.0,55.0,29.96,ENE,61,15.0,19.0,78,0.00,,,0.01,,2013-03-02 06:21:00,
2013-03-02 01:32:00,63.0,56.0,29.96,NNE,32,15.0,20.0,77,0.00,,,0.01,,2013-03-02 06:32:00,
2013-03-02 01:42:00,63.0,56.0,29.96,NNE,32,15.0,20.0,77,0.00,,,0.01,,2013-03-02 06:42:00,
2013-03-02 01:52:00,63.0,55.0,29.96,NE,37,15.0,21.0,76,0.00,,,0.01,,2013-03-02 06:52:00,
2013-03-02 02:01:00,63.0,56.0,29.95,NE,37,16.0,20.0,77,0.00,,,0.01,,2013-03-02 07:01:00,
2013-03-02 02:11:00,62.0,55.0,29.95,NNE,12,15.0,22.0,77,0.00,,,0.01,,2013-03-02 07:11:00,
2013-03-02 02:21:00,62.0,55.0,29.95,NNE,12,15.0,22.0,77,0.00,,,0.01,,2013-03-02 07:21:00,
2013-03-02 02:32:00,62.0,54.0,29.96,NNW,328,17.0,22.0,76,0.00,,,0.01,,2013-03-02 07:32:00,
2013-03-02 02:42:00,62.0,54.0,29.96,NNW,328,17.0,22.0,76,0.00,,,0.01,,2013-03-02 07:42:00,
2013-03-02 02:52:00,62.0,55.0,29.94,NE,47,15.0,22.0,77,0.00,,,0.01,,2013-03-02 07:52:00,
2013-03-02 03:01:00,62.0,54.0,29.95,NNE,30,16.0,22.0,75,0.00,,,0.01,,2013-03-02 08:01:00,
2013-03-02 03:11:00,62.0,54.0,29.95,NNE,30,16.0,22.0,75,0.00,,,0.01,,2013-03-02 08:11:00,
2013-03-02 03:22:00,62.0,54.0,29.95,NE,40,16.0,23.0,76,0.00,,,0.01,,2013-03-02 08:22:00,
2013-03-02 03:32:00,62.0,54.0,29.94,NNE,33,15.0,23.0,76,0.00,,,0.01,,2013-03-02 08:32:00,
2013-03-02 03:42:00,62.0,54.0,29.94,NNE,33,15.0,23.0,76,0.00,,,0.01,,2013-03-02 08:42:00,
2013-03-02 03:52:00,61.0,53.0,29.95,NNE,30,18.0,25.0,75,0.00,,,0.01,,2013-03-02 08:52:00,
2013-03-02 04:02:00,61.0,54.0,29.94,NE,40,23.0,28.0,78,0.00,,,0.01,,2013-03-02 09:02:00,
2013-03-02 04:11:00,61.0,54.0,29.95,NNE,21,18.0,26.0,77,0.00,,,0.00,,2013-03-02 09:11:00,
2013-03-02 04:22:00,61.0,54.0,29.95,NNE,21,18.0,26.0,77,0.00,,,0.00,,2013-03-02 09:22:00,
2013-03-02 04:32:00,61.0,54.0,29.95,NNW,337,18.0,26.0,78,0.00,,,0.00,,2013-03-02 09:32:00,
2013-03-02 04:42:00,61.0,54.0,29.95,NNW,337,18.0,26.0,78,0.00,,,0.00,,2013-03-02 09:42:00,
2013-03-02 04:52:00,61.0,53.0,29.95,NNW,330,23.0,28.0,76,0.00,,,0.00,,2013-03-02 09:52:00,
2013-03-02 05:01:00,61.0,53.0,29.95,NW,325,19.0,30.0,75,0.00,,,0.00,,2013-03-02 10:01:00,
2013-03-02 05:16:00,61.0,53.0,29.95,NW,325,19.0,30.0,75,0.00,,,0.00,,2013-03-02 10:16:00,
2013-03-02 05:22:00,61.0,52.0,29.96,NNE,32,20.0,26.0,72,0.00,,,0.00,,2013-03-02 10:22:00,
2013-03-02 05:32:00,60.0,51.0,29.97,NE,54,20.0,27.0,73,0.00,,,0.00,,2013-03-02 10:32:00,
2013-03-02 05:43:00,60.0,51.0,29.97,NE,54,20.0,27.0,73,0.00,,,0.00,,2013-03-02 10:43:00,
2013-03-02 05:52:00,60.0,51.0,29.97,WNW,298,18.0,27.0,72,0.00,,,0.00,,2013-03-02 10:52:00,
2013-03-02 06:01:00,60.0,51.0,29.97,North,349,20.0,28.0,73,0.00,,,0.00,,2013-03-02 11:01:00,
2013-03-02 06:11:00,60.0,51.0,29.97,North,349,20.0,28.0,73,0.00,,,0.00,,2013-03-02 11:11:00,
2013-03-02 06:21:00,60.0,52.0,29.97,NE,52,22.0,27.0,74,0.00,,,0.00,,2013-03-02 11:21:00,
2013-03-02 06:32:00,60.0,52.0,29.97,NNE,26,21.0,30.0,75,0.00,,,0.00,,2013-03-02 11:32:00,
2013-03-02 06:42:00,60.0,52.0,29.97,NNE,26,21.0,30.0,75,0.00,,,0.00,,2013-03-02 11:42:00,
2013-03-02 06:52:00,60.0,52.0,29.97,NNE,26,22.0,31.0,74,0.00,,,0.00,,2013-03-02 11:52:00,
2013-03-02 07:02:00,60.0,53.0,29.97,East,88,21.0,27.0,77,0.00,,,0.00,,2013-03-02 12:02:00,
2013-03-02 07:11:00,60.0,53.0,29.97,East,88,21.0,27.0,77,0.00,,,0.00,,2013-03-02 12:11:00,
2013-03-02 07:22:00,60.0,52.0,29.98,NNE,32,21.0,28.0,74,0.00,,,0.00,,2013-03-02 12:22:00,
2013-03-02 07:33:00,60.0,51.0,29.98,NE,42,22.0,28.0,73,0.00,,,0.00,,2013-03-02 12:33:00,
2013-03-02 07:43:00,60.0,51.0,29.98,NE,42,22.0,28.0,73,0.00,,,0.00,,2013-03-02 12:43:00,
2013-03-02 07:53:00,59.0,51.0,29.98,NE,46,24.0,29.0,74,0.00,,,0.00,,2013-03-02 12:53:00,
2013-03-02 08:01:00,59.0,51.0,29.99,NNE,29,24.0,30.0,74,0.00,,,0.00,,2013-03-02 13:01:00,
2013-03-02 08:11:00,59.0,51.0,29.99,NNE,29,24.0,30.0,74,0.00,,,0.00,,2013-03-02 13:11:00,
2013-03-02 08:22:00,59.0,50.0,30.00,NNE,33,25.0,30.0,72,0.00,,,0.00,,2013-03-02 13:22:00,
2013-03-02 08:32:00,59.0,50.0,30.01,NE,37,23.0,29.0,72,0.00,,,0.00,,2013-03-02 13:32:00,
2013-03-02 08:42:00,59.0,50.0,30.01,NE,37,23.0,29.0,72,0.00,,,0.00,,2013-03-02 13:42:00,
2013-03-02 08:52:00,59.0,50.0,30.02,NE,38,22.0,30.0,71,0.00,,,0.00,,2013-03-02 13:52:00,
2013-03-02 09:01:00,59.0,50.0,30.02,ENE,61,22.0,29.0,72,0.00,,,0.00,,2013-03-02 14:01:00,
2013-03-02 09:11:00,59.0,50.0,30.02,ENE,61,22.0,29.0,72,0.00,,,0.00,,2013-03-02 14:11:00,
2013-03-02 09:22:00,59.0,49.0,30.02,NNE,20,23.0,32.0,70,0.00,,,0.00,,2013-03-02 14:22:00,
2013-03-02 09:32:00,59.0,50.0,30.03,ENE,67,19.0,26.0,72,0.00,,,0.00,,2013-03-02 14:32:00,
2013-03-02 09:42:00,59.0,50.0,30.03,ENE,67,19.0,26.0,72,0.00,,,0.00,,2013-03-02 14:42:00,
2013-03-02 09:52:00,58.0,49.0,30.02,ENE,57,24.0,27.0,71,0.00,,,0.00,,2013-03-02 14:52:00,
2013-03-02 10:02:00,58.0,49.0,30.03,ENE,59,18.0,24.0,71,0.00,,,0.00,,2013-03-02 15:02:00,
2013-03-02 10:11:00,58.0,49.0,30.03,ENE,59,18.0,24.0,71,0.00,,,0.00,,2013-03-02 15:11:00,
2013-03-02 10:22:00,58.0,48.0,30.02,NE,38,19.0,25.0,70,0.00,,,0.00,,2013-03-02 15:22:00,
2013-03-02 10:32:00,58.0,48.0,30.02,NE,54,22.0,25.0,69,0.00,,,0.00,,2013-03-02 15:32:00,
2013-03-02 10:42:00,58.0,48.0,30.02,NE,54,22.0,25.0,69,0.00,,,0.00,,2013-03-02 15:42:00,
2013-03-02 10:52:00,58.0,49.0,30.02,NE,37,19.0,23.0,72,0.00,,,0.00,,2013-03-02 15:52:00,
2013-03-02 11:02:00,58.0,49.0,30.01,NE,47,19.0,24.0,71,0.00,,,0.00,,2013-03-02 16:02:00,
2013-03-02 11:11:00,58.0,49.0,30.01,NE,47,19.0,24.0,71,0.00,,,0.00,,2013-03-02 16:11:00,
2013-03-02 11:21:00,58.0,49.0,30.02,NE,40,9.0,16.0,72,0.00,,,0.00,,2013-03-02 16:21:00,
2013-03-02 11:32:00,59.0,50.0,30.02,NE,40,14.0,18.0,72,0.00,,,0.00,,2013-03-02 16:32:00,
2013-03-02 11:42:00,59.0,50.0,30.02,NE,40,14.0,18.0,72,0.00,,,0.00,,2013-03-02 16:42:00,
2013-03-02 11:52:00,59.0,49.0,30.02,NNE,32,13.0,16.0,70,0.00,,,0.00,,2013-03-02 16:52:00,
2013-03-02 12:01:00,59.0,50.0,30.01,ENE,63,11.0,16.0,71,0.00,,,0.00,,2013-03-02 17:01:00,
2013-03-02 12:11:00,59.0,50.0,30.01,ENE,63,11.0,16.0,71,0.00,,,0.00,,2013-03-02 17:11:00,
2013-03-02 12:21:00,59.0,50.0,30.02,NE,34,10.0,16.0,71,0.00,,,0.00,,2013-03-02 17:21:00,
2013-03-02 12:32:00,59.0,50.0,30.01,NNW,342,12.0,15.0,72,0.00,,,0.00,,2013-03-02 17:32:00,
2013-03-02 12:42:00,59.0,50.0,30.01,NNW,342,12.0,15.0,72,0.00,,,0.00,,2013-03-02 17:42:00,
2013-03-02 12:52:00,59.0,50.0,30.01,ENE,71,7.0,14.0,72,0.00,,,0.00,,2013-03-02 17:52:00,
2013-03-02 13:02:00,59.0,50.0,30.01,NE,34,9.0,16.0,73,0.00,,,0.00,,2013-03-02 18:02:00,
2013-03-02 13:11:00,59.0,50.0,30.01,NE,34,9.0,16.0,73,0.00,,,0.00,,2013-03-02 18:11:00,
2013-03-02 13:22:00,59.0,50.0,30.00,NNE,17,9.0,12.0,71,0.00,,,0.00,,2013-03-02 18:22:00,
2013-03-02 13:32:00,59.0,49.0,29.99,NNE,29,6.0,10.0,70,0.00,,,0.00,,2013-03-02 18:32:00,
2013-03-02 13:42:00,59.0,49.0,29.99,NNE,29,6.0,10.0,70,0.00,,,0.00,,2013-03-02 18:42:00,
2013-03-02 13:52:00,60.0,51.0,29.99,NW,325,3.0,9.0,72,0.00,,,0.00,,2013-03-02 18:52:00,
2013-03-02 14:01:00,60.0,51.0,29.99,NNE,29,7.0,10.0,72,0.00,,,0.00,,2013-03-02 19:01:00,
2013-03-02 14:12:00,60.0,51.0,29.99,NNE,29,7.0,10.0,72,0.00,,,0.00,,2013-03-02 19:12:00,
2013-03-02 14:22:00,61.0,52.0,29.98,WNW,285,4.0,8.0,71,0.00,,,0.00,,2013-03-02 19:22:00,
2013-03-02 14:32:00,62.0,51.0,29.98,NW,323,10.0,16.0,68,0.00,,,0.00,,2013-03-02 19:32:00,
2013-03-02 14:42:00,62.0,51.0,29.98,NW,323,10.0,16.0,68,0.00,,,0.00,,2013-03-02 19:42:00,
2013-03-02 14:52:00,63.0,54.0,29.96,SW,218,4.0,13.0,72,0.00,,,0.00,,2013-03-02 19:52:00,
2013-03-02 15:01:00,63.0,53.0,29.96,SW,217,2.0,10.0,71,0.00,,,0.00,,2013-03-02 20:01:00,
2013-03-02 15:11:00,63.0,53.0,29.96,SW,217,2.0,10.0,71,0.00,,,0.00,,2013-03-02 20:11:00,
2013-03-02 15:22:00,64.0,54.0,29.96,SW,226,6.0,9.0,71,0.00,,,0.00,,2013-03-02 20:22:00,
2013-03-02 15:32:00,65.0,54.0,29.96,SW,225,9.0,20.0,67,0.00,,,0.00,,2013-03-02 20:32:00,
2013-03-02 15:42:00,65.0,54.0,29.96,SW,225,9.0,20.0,67,0.00,,,0.00,,2013-03-02 20:42:00,
2013-03-02 15:53:00,65.0,54.0,29.96,SSW,213,10.0,18.0,67,0.00,,,0.00,,2013-03-02 20:53:00,
2013-03-02 16:02:00,65.0,54.0,29.95,SW,219,9.0,14.0,67,0.00,,,0.00,,2013-03-02 21:02:00,
2013-03-02 16:11:00,65.0,54.0,29.95,SW,219,9.0,14.0,67,0.00,,,0.00,,2013-03-02 21:11:00,
2013-03-02 16:22:00,65.0,53.0,29.96,WSW,250,9.0,18.0,66,0.00,,,0.00,,2013-03-02 21:22:00,
2013-03-02 16:32:00,65.0,54.0,29.96,SW,219,9.0,23.0,67,0.00,,,0.00,,2013-03-02 21:32:00,
2013-03-02 16:42:00,65.0,54.0,29.96,SW,219,9.0,23.0,67,0.00,,,0.00,,2013-03-02 21:42:00,
2013-03-02 16:52:00,64.0,52.0,29.96,WSW,242,13.0,22.0,66,0.00,,,0.00,,2013-03-02 21:52:00,
2013-03-02 17:02:00,64.0,52.0,29.97,WNW,285,10.0,23.0,66,0.00,,,0.00,,2013-03-02 22:02:00,
2013-03-02 17:11:00,64.0,52.0,29.97,WNW,285,10.0,23.0,66,0.00,,,0.00,,2013-03-02 22:11:00,
2013-03-02 17:22:00,63.0,52.0,29.97,SW,229,10.0,19.0,68,0.00,,,0.00,,2013-03-02 22:22:00,
2013-03-02 17:32:00,63.0,51.0,29.98,SSW,213,11.0,25.0,66,0.00,,,0.00,,2013-03-02 22:32:00,
2013-03-02 17:42:00,63.0,51.0,29.98,SSW,213,11.0,25.0,66,0.00,,,0.00,,2013-03-02 22:42:00,
2013-03-02 17:52:00,63.0,51.0,29.98,SW,231,7.0,18.0,66,0.00,,,0.00,,2013-03-02 22:52:00,
2013-03-02 18:01:00,63.0,51.0,29.98,WSW,240,9.0,20.0,66,0.00,,,0.00,,2013-03-02 23:01:00,
2013-03-02 18:11:00,62.0,50.0,29.98,NNW,336,14.0,23.0,64,0.00,,,0.00,,2013-03-02 23:11:00,
2013-03-02 18:21:00,62.0,50.0,29.98,NNW,336,14.0,23.0,64,0.00,,,0.00,,2013-03-02 23:21:00,
2013-03-02 18:32:00,62.0,50.0,29.98,NW,321,13.0,21.0,64,0.00,,,0.00,,2013-03-02 23:32:00,
2013-03-02 18:42:00,62.0,50.0,29.98,NW,321,13.0,21.0,64,0.00,,,0.00,,2013-03-02 23:42:00,
2013-03-02 18:52:00,62.0,47.0,29.99,NNE,14,15.0,25.0,59,0.00,,,0.00,,2013-03-02 23:52:00,
2013-03-02 19:02:00,62.0,48.0,29.99,NNE,15,16.0,24.0,61,0.00,,,0.00,,2013-03-03 00:02:00,
2013-03-02 19:11:00,62.0,48.0,29.99,NNE,15,16.0,24.0,61,0.00,,,0.00,,2013-03-03 00:11:00,
2013-03-02 19:22:00,62.0,49.0,30.00,NNE,14,18.0,26.0,63,0.00,,,0.00,,2013-03-03 00:22:00,
2013-03-02 19:32:00,62.0,50.0,30.00,NNE,12,13.0,24.0,64,0.00,,,0.00,,2013-03-03 00:32:00,
2013-03-02 19:42:00,62.0,50.0,30.00,NNE,12,13.0,24.0,64,0.00,,,0.00,,2013-03-03 00:42:00,
2013-03-02 19:52:00,62.0,51.0,30.00,NNE,30,17.0,24.0,66,0.00,,,0.00,,2013-03-03 00:52:00,
2013-03-02 20:01:00,62.0,50.0,30.01,NNE,22,16.0,25.0,65,0.00,,,0.00,,2013-03-03 01:01:00,
2013-03-02 20:11:00,62.0,50.0,30.01,NNE,22,16.0,25.0,65,0.00,,,0.00,,2013-03-03 01:11:00,
2013-03-02 20:21:00,61.0,48.0,30.01,NW,315,12.0,22.0,63,0.00,,,0.00,,2013-03-03 01:21:00,
2013-03-02 20:32:00,61.0,49.0,30.02,NNW,339,15.0,21.0,64,0.00,,,0.00,,2013-03-03 01:32:00,
2013-03-02 20:42:00,61.0,49.0,30.02,NNW,339,15.0,21.0,64,0.00,,,0.00,,2013-03-03 01:42:00,
2013-03-02 20:52:00,61.0,48.0,30.02,NNW,340,12.0,22.0,62,0.00,,,0.00,,2013-03-03 01:52:00,
2013-03-02 21:01:00,61.0,48.0,30.02,NNW,340,12.0,22.0,62,0.00,,,0.00,,2013-03-03 02:01:00,
2013-03-02 21:11:00,61.0,49.0,30.03,WNW,292,13.0,20.0,64,0.00,,,0.00,,2013-03-03 02:11:00,
2013-03-02 21:21:00,61.0,49.0,30.03,WNW,292,13.0,20.0,64,0.00,,,0.00,,2013-03-03 02:21:00,
2013-03-02 21:32:00,61.0,48.0,30.03,NNE,28,11.0,19.0,63,0.00,,,0.00,,2013-03-03 02:32:00,
2013-03-02 21:42:00,61.0,48.0,30.03,NNE,28,11.0,19.0,63,0.00,,,0.00,,2013-03-03 02:42:00,
2013-03-02 21:52:00,61.0,49.0,30.03,NE,38,12.0,15.0,64,0.00,,,0.00,,2013-03-03 02:52:00,
2013-03-02 22:01:00,61.0,48.0,30.03,NNE,18,11.0,19.0,63,0.00,,,0.00,,2013-03-03 03:01:00,
2013-03-02 22:11:00,61.0,48.0,30.03,NNE,18,11.0,19.0,63,0.00,,,0.00,,2013-03-03 03:11:00,
2013-03-02 22:21:00,61.0,48.0,30.03,NE,36,10.0,14.0,63,0.00,,,0.00,,2013-03-03 03:21:00,
2013-03-02 22:32:00,61.0,49.0,30.03,NNE,30,6.0,14.0,64,0.00,,,0.00,,2013-03-03 03:32:00,
2013-03-02 22:42:00,61.0,49.0,30.03,NNE,30,6.0,14.0,64,0.00,,,0.00,,2013-03-03 03:42:00,
2013-03-02 22:52:00,61.0,49.0,30.03,ENE,69,7.0,15.0,65,0.00,,,0.00,,2013-03-03 03:52:00,
2013-03-02 23:01:00,61.0,50.0,30.03,NE,47,12.0,19.0,67,0.00,,,0.00,,2013-03-03 04:01:00,
2013-03-02 23:11:00,61.0,50.0,30.03,NE,47,12.0,19.0,67,0.00,,,0.00,,2013-03-03 04:11:00,
2013-03-02 23:21:00,60.0,48.0,30.02,NE,55,12.0,15.0,64,0.00,,,0.00,,2013-03-03 04:21:00,
2013-03-02 23:32:00,60.0,49.0,30.02,NE,48,11.0,14.0,66,0.00,,,0.00,,2013-03-03 04:32:00,
2013-03-02 23:42:00,60.0,49.0,30.02,NE,48,11.0,14.0,66,0.00,,,0.00,,2013-03-03 04:42:00,
2013-03-02 23:52:00,60.0,48.0,30.02,ENE,71,8.0,12.0,65,0.00,,,0.00,,2013-03-03 04:52:00,